Погода в Покровке

Украина / Донецкая область     47°56′11″N   38°16′43″E
темп.,
°C
ветер,
м/с
пор.,
м/с
влажн.,
%
обл.,
%
осадки,
мм/ч
давл.,
гПа
погр.,
м
9 марта, вт
вт923:000з4797100 0.3 1011352
02:00−1зсз2591100 0.5 1012143
05:00−3зсз379274 0.1 1012189
08:00−1зсз587737 0.1 1014869
11:000зсз676935 0.1 10151158
14:000зсз686261 0.2 10161403
17:00−1сз486586 0.1 1018628
20:00−3сз486951 0.1 1020463
10 марта, ср
ср1023:00−4сз267079 0.0 1021514
02:00−4ссз357082 0.0 1023828
05:00−5ссз456650 0.0 1024897
08:00−5с355928 0.0 1026854
11:00−3ссв334441 0.0 10261068
14:00−2ссв224171 0.0 10251093
17:00−3св2348100 0.0 1024791
20:00−3св2455100 0.0 1025369
11 марта, чт
чт1123:00−4в255698 0.0 1024457
02:00−4всв255398 0.0 1025511
05:00−5всв365788 0.0 1024420
08:00−4всв574848 0.0 1025780
11:00−2всв57430 0.0 10261219
14:00−2всв67470 0.0 10261267
17:00−4всв675263 0.0 10261200
20:00−6всв674940 0.0 1028905
12 марта, пт
пт1223:00−8всв57420 0.0 1029780
02:00−9всв57470 0.0 1030677
05:00−10всв57490 0.0 1031621
08:00−9в46390 0.0 1032612
11:00−6вюв56250 0.0 1031869
14:00−3вюв44234 0.0 10311052
17:00−4вюв562876 0.0 1030916
20:00−5юв573355 0.0 1031814
13 марта, сб
сб1323:00−5ююв483256 0.0 1031736
02:00−6ююв583877 0.0 1030578
05:00−6ююв584387 0.0 1029450
08:00−5ююв694292 0.0 1030545
11:00−2ююв6839100 0.0 1029766
14:000ююв573962 0.0 1027845
17:00−1юв47480 0.0 1026563
20:00−2юв395819 0.0 1025420